Time,TemperatureF,DewpointF,PressureIn,WindDirection,WindDirectionDegrees,WindSpeedMPH,WindSpeedGustMPH,Humidity,HourlyPrecipIn,Conditions,Clouds,dailyrainin,SolarRadiationWatts/m^2,SoftwareType,DateUTC
2013-02-21 00:02:00,42.6,35.2,29.81,ENE,70,7.0,11.0,75,0.00,,,0.00,0,Wunderground v.1.15,2013-02-21 06:02:00,
2013-02-21 00:08:00,42.7,35.3,29.81,ESE,107,8.0,11.0,75,0.00,,,0.00,0,Wunderground v.1.15,2013-02-21 06:08:00,
2013-02-21 00:13:00,42.8,35.4,29.81,East,83,7.0,7.0,75,0.00,,,0.00,0,Wunderground v.1.15,2013-02-21 06:13:00,
2013-02-21 00:18:00,42.8,35.1,29.81,East,95,8.0,13.0,74,0.00,,,0.00,0,Wunderground v.1.15,2013-02-21 06:18:00,
2013-02-21 00:24:00,42.9,35.2,29.80,SE,132,8.0,11.0,74,0.00,,,0.00,0,Wunderground v.1.15,2013-02-21 06:24:00,
2013-02-21 00:29:00,42.9,35.2,29.79,ESE,117,8.0,13.0,74,0.00,,,0.00,0,Wunderground v.1.15,2013-02-21 06:29:00,
2013-02-21 00:34:00,43.0,35.3,29.79,East,91,8.0,10.0,74,0.00,,,0.00,0,Wunderground v.1.15,2013-02-21 06:34:00,
2013-02-21 00:39:00,43.0,35.6,29.80,ESE,103,7.0,12.0,75,0.00,,,0.00,0,Wunderground v.1.15,2013-02-21 06:39:00,
2013-02-21 00:45:00,43.1,35.7,29.79,ENE,78,8.0,11.0,75,0.00,,,0.00,0,Wunderground v.1.15,2013-02-21 06:45:00,
2013-02-21 00:50:00,43.1,35.7,29.79,East,86,8.0,11.0,75,0.00,,,0.00,0,Wunderground v.1.15,2013-02-21 06:50:00,
2013-02-21 00:56:00,43.2,35.5,29.79,East,89,7.0,14.0,74,0.00,,,0.00,0,Wunderground v.1.15,2013-02-21 06:56:00,
2013-02-21 01:01:00,43.2,35.5,29.78,ESE,123,7.0,9.0,74,0.00,,,0.00,0,Wunderground v.1.15,2013-02-21 07:01:00,
2013-02-21 01:06:00,43.3,35.6,29.78,East,99,7.0,12.0,74,0.00,,,0.00,0,Wunderground v.1.15,2013-02-21 07:06:00,
2013-02-21 01:12:00,43.4,35.7,29.79,ESE,109,7.0,8.0,74,0.00,,,0.00,0,Wunderground v.1.15,2013-02-21 07:12:00,
2013-02-21 01:17:00,43.4,36.0,29.78,East,98,7.0,12.0,75,0.00,,,0.00,0,Wunderground v.1.15,2013-02-21 07:17:00,
2013-02-21 01:22:00,43.3,36.2,29.79,East,100,6.0,6.0,76,0.00,,,0.00,0,Wunderground v.1.15,2013-02-21 07:22:00,
2013-02-21 01:28:00,43.3,36.2,29.78,ESE,104,6.0,7.0,76,0.00,,,0.00,0,Wunderground v.1.15,2013-02-21 07:28:00,
2013-02-21 01:33:00,43.4,36.3,29.78,East,99,6.0,6.0,76,0.00,,,0.00,0,Wunderground v.1.15,2013-02-21 07:33:00,
2013-02-21 01:38:00,43.4,36.3,29.78,ENE,78,6.0,7.0,76,0.00,,,0.00,0,Wunderground v.1.15,2013-02-21 07:38:00,
2013-02-21 01:44:00,43.5,36.4,29.78,East,80,6.0,8.0,76,0.00,,,0.00,0,Wunderground v.1.15,2013-02-21 07:44:00,
2013-02-21 01:49:00,43.6,36.5,29.78,East,92,5.0,8.0,76,0.00,,,0.00,0,Wunderground v.1.15,2013-02-21 07:49:00,
2013-02-21 01:54:00,43.5,36.8,29.78,East,88,6.0,10.0,77,0.00,,,0.00,0,Wunderground v.1.15,2013-02-21 07:54:00,
2013-02-21 01:59:00,43.5,36.8,29.78,SE,144,5.0,15.0,77,0.00,,,0.00,0,Wunderground v.1.15,2013-02-21 07:59:00,
2013-02-21 02:05:00,43.6,36.9,29.80,East,96,3.0,6.0,77,0.00,,,0.00,0,Wunderground v.1.15,2013-02-21 08:05:00,
2013-02-21 02:10:00,43.7,37.0,29.81,East,82,4.0,4.0,77,0.00,,,0.00,0,Wunderground v.1.15,2013-02-21 08:10:00,
2013-02-21 02:15:00,43.8,37.1,29.81,East,90,3.0,5.0,77,0.00,,,0.00,0,Wunderground v.1.15,2013-02-21 08:15:00,
2013-02-21 02:21:00,43.8,37.1,29.80,ENE,67,2.0,5.0,77,0.00,,,0.00,0,Wunderground v.1.15,2013-02-21 08:21:00,
2013-02-21 02:27:00,43.8,37.4,29.78,East,82,3.0,5.0,78,0.00,,,0.00,0,Wunderground v.1.15,2013-02-21 08:27:00,
2013-02-21 02:32:00,43.8,37.4,29.78,East,86,3.0,6.0,78,0.00,,,0.00,0,Wunderground v.1.15,2013-02-21 08:32:00,
2013-02-21 02:38:00,43.8,37.7,29.79,East,83,3.0,6.0,79,0.00,,,0.00,0,Wunderground v.1.15,2013-02-21 08:38:00,
2013-02-21 02:43:00,43.7,37.9,29.78,East,98,3.0,5.0,80,0.00,,,0.01,0,Wunderground v.1.15,2013-02-21 08:43:00,
2013-02-21 02:48:00,43.7,37.9,29.78,East,82,3.0,5.0,80,0.00,,,0.01,0,Wunderground v.1.15,2013-02-21 08:48:00,
2013-02-21 02:54:00,43.6,38.2,29.78,East,92,3.0,6.0,81,0.00,,,0.01,0,Wunderground v.1.15,2013-02-21 08:54:00,
2013-02-21 02:59:00,43.6,38.2,29.77,East,80,3.0,11.0,81,0.00,,,0.01,0,Wunderground v.1.15,2013-02-21 08:59:00,
2013-02-21 03:05:00,43.6,38.2,29.77,East,84,3.0,3.0,81,0.00,,,0.01,0,Wunderground v.1.15,2013-02-21 09:05:00,
2013-02-21 03:11:00,43.6,38.5,29.76,East,90,2.0,4.0,82,0.00,,,0.01,0,Wunderground v.1.15,2013-02-21 09:11:00,
2013-02-21 03:16:00,43.7,38.6,29.76,ESE,116,3.0,4.0,82,0.00,,,0.01,0,Wunderground v.1.15,2013-02-21 09:16:00,
2013-02-21 03:22:00,43.7,38.9,29.75,East,94,4.0,6.0,83,0.00,,,0.01,0,Wunderground v.1.15,2013-02-21 09:22:00,
2013-02-21 03:27:00,43.7,38.9,29.74,East,99,5.0,6.0,83,0.00,,,0.02,0,Wunderground v.1.15,2013-02-21 09:27:00,
2013-02-21 03:32:00,43.7,38.9,29.74,East,88,5.0,8.0,83,0.00,,,0.02,0,Wunderground v.1.15,2013-02-21 09:32:00,
2013-02-21 03:37:00,43.8,39.0,29.73,ENE,77,6.0,8.0,83,0.00,,,0.02,0,Wunderground v.1.15,2013-02-21 09:37:00,
2013-02-21 03:43:00,44.0,38.9,29.72,ESE,103,6.0,6.0,82,0.00,,,0.02,0,Wunderground v.1.15,2013-02-21 09:43:00,
2013-02-21 03:48:00,44.0,38.9,29.72,East,98,7.0,11.0,82,0.00,,,0.02,0,Wunderground v.1.15,2013-02-21 09:48:00,
2013-02-21 03:54:00,44.1,39.0,29.71,SE,138,6.0,8.0,82,0.00,,,0.02,0,Wunderground v.1.15,2013-02-21 09:54:00,
2013-02-21 03:59:00,44.2,39.1,29.71,East,101,6.0,12.0,82,0.00,,,0.02,0,Wunderground v.1.15,2013-02-21 09:59:00,
2013-02-21 04:04:00,44.3,39.5,29.71,ESE,120,7.0,7.0,83,0.00,,,0.02,0,Wunderground v.1.15,2013-02-21 10:04:00,
2013-02-21 04:10:00,44.5,39.7,29.70,East,84,6.0,6.0,83,0.00,,,0.02,0,Wunderground v.1.15,2013-02-21 10:10:00,
2013-02-21 04:15:00,44.6,39.8,29.71,SE,130,5.0,8.0,83,0.00,,,0.02,0,Wunderground v.1.15,2013-02-21 10:15:00,
2013-02-21 04:20:00,44.6,39.8,29.71,East,83,5.0,5.0,83,0.00,,,0.02,0,Wunderground v.1.15,2013-02-21 10:20:00,
2013-02-21 04:26:00,44.7,39.9,29.71,East,96,5.0,8.0,83,0.00,,,0.02,0,Wunderground v.1.15,2013-02-21 10:26:00,
2013-02-21 04:31:00,44.7,39.9,29.71,ESE,107,5.0,7.0,83,0.00,,,0.02,0,Wunderground v.1.15,2013-02-21 10:31:00,
2013-02-21 04:36:00,44.7,39.9,29.71,East,93,5.0,7.0,83,0.00,,,0.02,0,Wunderground v.1.15,2013-02-21 10:36:00,
2013-02-21 04:42:00,44.9,40.0,29.71,East,85,6.0,11.0,83,0.00,,,0.02,0,Wunderground v.1.15,2013-02-21 10:42:00,
2013-02-21 04:47:00,45.0,40.1,29.70,East,86,6.0,12.0,83,0.00,,,0.02,0,Wunderground v.1.15,2013-02-21 10:47:00,
2013-02-21 04:52:00,45.1,40.2,29.68,East,90,7.0,7.0,83,0.00,,,0.02,0,Wunderground v.1.15,2013-02-21 10:52:00,
2013-02-21 04:58:00,45.2,40.3,29.69,ESE,114,6.0,15.0,83,0.00,,,0.02,0,Wunderground v.1.15,2013-02-21 10:58:00,
2013-02-21 05:03:00,45.2,40.3,29.67,ESE,114,7.0,13.0,83,0.00,,,0.02,0,Wunderground v.1.15,2013-02-21 11:03:00,
2013-02-21 05:08:00,45.2,40.3,29.67,SE,124,8.0,14.0,83,0.00,,,0.02,0,Wunderground v.1.15,2013-02-21 11:08:00,
2013-02-21 05:14:00,45.4,40.5,29.67,SE,128,10.0,18.0,83,0.00,,,0.02,0,Wunderground v.1.15,2013-02-21 11:14:00,
2013-02-21 05:19:00,45.5,40.6,29.66,East,100,9.0,18.0,83,0.00,,,0.02,0,Wunderground v.1.15,2013-02-21 11:19:00,
2013-02-21 05:24:00,45.5,40.6,29.66,ENE,76,7.0,9.0,83,0.00,,,0.02,0,Wunderground v.1.15,2013-02-21 11:24:00,
2013-02-21 05:30:00,45.8,41.2,29.66,ESE,109,8.0,8.0,84,0.00,,,0.02,0,Wunderground v.1.15,2013-02-21 11:30:00,
2013-02-21 05:35:00,45.9,41.0,29.66,SE,127,8.0,9.0,83,0.00,,,0.02,0,Wunderground v.1.15,2013-02-21 11:35:00,
2013-02-21 05:40:00,45.9,41.3,29.66,SE,134,7.0,13.0,84,0.00,,,0.02,0,Wunderground v.1.15,2013-02-21 11:40:00,
2013-02-21 05:46:00,45.8,41.2,29.66,SE,138,8.0,13.0,84,0.00,,,0.02,0,Wunderground v.1.15,2013-02-21 11:46:00,
2013-02-21 05:51:00,45.8,41.2,29.66,ESE,123,8.0,9.0,84,0.00,,,0.02,0,Wunderground v.1.15,2013-02-21 11:51:00,
2013-02-21 05:56:00,45.9,41.3,29.66,SE,142,8.0,14.0,84,0.00,,,0.02,0,Wunderground v.1.15,2013-02-21 11:56:00,
2013-02-21 06:02:00,45.9,41.3,29.67,SE,138,7.0,7.0,84,0.00,,,0.02,0,Wunderground v.1.15,2013-02-21 12:02:00,
2013-02-21 06:07:00,46.1,41.5,29.67,SSE,156,7.0,8.0,84,0.00,,,0.02,0,Wunderground v.1.15,2013-02-21 12:07:00,
2013-02-21 06:12:00,46.2,41.6,29.66,East,84,7.0,10.0,84,0.00,,,0.02,0,Wunderground v.1.15,2013-02-21 12:12:00,
2013-02-21 06:17:00,46.2,41.6,29.65,SE,141,7.0,10.0,84,0.00,,,0.02,0,Wunderground v.1.15,2013-02-21 12:17:00,
2013-02-21 06:23:00,46.2,41.6,29.65,SSE,161,7.0,11.0,84,0.00,,,0.02,0,Wunderground v.1.15,2013-02-21 12:23:00,
2013-02-21 06:28:00,46.1,41.5,29.65,ESE,123,8.0,11.0,84,0.00,,,0.02,0,Wunderground v.1.15,2013-02-21 12:28:00,
2013-02-21 06:33:00,46.2,41.9,29.65,SE,146,8.0,13.0,85,0.00,,,0.02,0,Wunderground v.1.15,2013-02-21 12:33:00,
2013-02-21 06:39:00,46.2,41.9,29.66,SSW,192,8.0,13.0,85,0.00,,,0.02,0,Wunderground v.1.15,2013-02-21 12:39:00,
2013-02-21 06:44:00,46.2,41.9,29.66,SSE,153,9.0,11.0,85,0.00,,,0.02,0,Wunderground v.1.15,2013-02-21 12:44:00,
2013-02-21 06:49:00,46.2,42.2,29.66,South,175,9.0,11.0,86,0.00,,,0.02,0,Wunderground v.1.15,2013-02-21 12:49:00,
2013-02-21 06:55:00,46.2,42.2,29.64,East,92,8.0,11.0,86,0.00,,,0.02,0,Wunderground v.1.15,2013-02-21 12:55:00,
2013-02-21 07:00:00,46.2,42.5,29.64,SE,130,8.0,8.0,87,0.00,,,0.02,0,Wunderground v.1.15,2013-02-21 13:00:00,
2013-02-21 07:06:00,46.2,42.5,29.63,East,96,8.0,13.0,87,0.00,,,0.02,0,Wunderground v.1.15,2013-02-21 13:06:00,
2013-02-21 07:11:00,46.3,42.9,29.63,SSE,167,7.0,7.0,88,0.00,,,0.02,0,Wunderground v.1.15,2013-02-21 13:11:00,
2013-02-21 07:16:00,46.3,42.9,29.63,SE,141,6.0,7.0,88,0.00,,,0.02,0,Wunderground v.1.15,2013-02-21 13:16:00,
2013-02-21 07:22:00,46.4,43.3,29.63,SSE,147,7.0,7.0,89,0.00,,,0.02,5,Wunderground v.1.15,2013-02-21 13:22:00,
2013-02-21 07:27:00,46.4,43.3,29.64,SSE,150,7.0,7.0,89,0.00,,,0.02,7,Wunderground v.1.15,2013-02-21 13:27:00,
2013-02-21 07:32:00,46.5,43.4,29.63,SE,140,6.0,6.0,89,0.00,,,0.02,5,Wunderground v.1.15,2013-02-21 13:32:00,
2013-02-21 07:38:00,46.6,43.8,29.64,ESE,120,7.0,9.0,90,0.00,,,0.02,0,Wunderground v.1.15,2013-02-21 13:38:00,
2013-02-21 07:43:00,46.7,43.9,29.65,ESE,113,6.0,7.0,90,0.00,,,0.02,5,Wunderground v.1.15,2013-02-21 13:43:00,
2013-02-21 07:48:00,46.9,44.1,29.65,SE,142,6.0,7.0,90,0.00,,,0.02,7,Wunderground v.1.15,2013-02-21 13:48:00,
2013-02-21 07:54:00,47.0,44.2,29.66,SSE,161,6.0,8.0,90,0.00,,,0.02,5,Wunderground v.1.15,2013-02-21 13:54:00,
2013-02-21 07:59:00,47.2,44.7,29.74,WSW,249,7.0,18.0,91,0.00,,,0.02,0,Wunderground v.1.15,2013-02-21 13:59:00,
2013-02-21 08:05:00,47.2,44.4,29.75,WNW,292,10.0,11.0,90,0.00,,,0.02,0,Wunderground v.1.15,2013-02-21 14:05:00,
2013-02-21 08:10:00,47.5,45.0,29.76,West,277,8.0,8.0,91,0.00,,,0.02,0,Wunderground v.1.15,2013-02-21 14:10:00,
2013-02-21 08:15:00,47.5,45.0,29.76,NNW,332,7.0,9.0,91,0.00,,,0.03,7,Wunderground v.1.15,2013-02-21 14:15:00,
2013-02-21 08:20:00,47.3,44.8,29.76,WNW,286,6.0,6.0,91,0.18,,,0.04,0,Wunderground v.1.15,2013-02-21 14:20:00,
2013-02-21 08:26:00,47.1,44.6,29.76,NNW,342,4.0,6.0,91,0.18,,,0.06,0,Wunderground v.1.15,2013-02-21 14:26:00,
2013-02-21 08:31:00,46.9,44.4,29.76,North,349,3.0,3.0,91,0.51,,,0.13,0,Wunderground v.1.15,2013-02-21 14:31:00,
2013-02-21 08:36:00,46.7,44.2,29.75,North,9,2.0,4.0,91,1.01,,,0.20,9,Wunderground v.1.15,2013-02-21 14:36:00,
2013-02-21 08:42:00,46.6,44.1,29.76,North,355,3.0,4.0,91,0.16,,,0.23,18,Wunderground v.1.15,2013-02-21 14:42:00,
2013-02-21 08:47:00,46.6,44.1,29.76,North,355,3.0,5.0,91,0.07,,,0.23,32,Wunderground v.1.15,2013-02-21 14:47:00,
2013-02-21 08:52:00,46.5,44.0,29.75,North,5,3.0,5.0,91,0.04,,,0.23,76,Wunderground v.1.15,2013-02-21 14:52:00,
2013-02-21 08:58:00,46.7,44.5,29.75,North,11,2.0,11.0,92,0.00,,,0.23,84,Wunderground v.1.15,2013-02-21 14:58:00,
2013-02-21 09:03:00,46.7,44.5,29.75,NNW,348,2.0,6.0,92,0.00,,,0.23,46,Wunderground v.1.15,2013-02-21 15:03:00,
2013-02-21 09:08:00,46.6,44.4,29.76,NNE,27,3.0,8.0,92,0.00,,,0.24,40,Wunderground v.1.15,2013-02-21 15:08:00,
2013-02-21 09:14:00,46.6,44.4,29.75,East,81,3.0,4.0,92,0.00,,,0.24,74,Wunderground v.1.15,2013-02-21 15:14:00,
2013-02-21 09:19:00,46.8,44.6,29.75,NE,39,1.0,4.0,92,0.00,,,0.24,90,Wunderground v.1.15,2013-02-21 15:19:00,
2013-02-21 09:25:00,46.8,44.6,29.75,NE,54,1.0,3.0,92,0.00,,,0.24,100,Wunderground v.1.15,2013-02-21 15:25:00,
2013-02-21 09:30:00,46.8,44.6,29.75,NNE,32,1.0,1.0,92,0.00,,,0.24,111,Wunderground v.1.15,2013-02-21 15:30:00,
2013-02-21 09:35:00,47.0,45.1,29.75,NNE,28,1.0,1.0,93,0.00,,,0.24,151,Wunderground v.1.15,2013-02-21 15:35:00,
2013-02-21 09:41:00,47.2,45.3,29.74,NNE,27,1.0,1.0,93,0.00,,,0.24,338,Wunderground v.1.15,2013-02-21 15:41:00,
2013-02-21 09:46:00,47.9,46.0,29.74,NNE,27,1.0,1.0,93,0.00,,,0.24,265,Wunderground v.1.15,2013-02-21 15:46:00,
2013-02-21 09:51:00,48.5,46.6,29.75,NNE,27,0.0,2.0,93,0.00,,,0.24,149,Wunderground v.1.15,2013-02-21 15:51:00,
2013-02-21 09:57:00,49.0,47.1,29.75,NNE,26,1.0,5.0,93,0.00,,,0.24,413,Wunderground v.1.15,2013-02-21 15:57:00,
2013-02-21 10:03:00,49.8,47.9,29.74,NNE,26,0.0,2.0,93,0.00,,,0.24,265,Wunderground v.1.15,2013-02-21 16:03:00,
2013-02-21 10:08:00,50.1,47.9,29.73,NNE,26,1.0,3.0,92,0.00,,,0.24,601,Wunderground v.1.15,2013-02-21 16:08:00,
2013-02-21 10:14:00,50.8,48.8,29.73,NNE,26,1.0,1.0,93,0.00,,,0.24,309,Wunderground v.1.15,2013-02-21 16:14:00,
2013-02-21 10:19:00,51.2,49.0,29.74,WNW,290,1.0,3.0,92,0.00,,,0.24,253,Wunderground v.1.15,2013-02-21 16:19:00,
2013-02-21 10:24:00,51.2,48.7,29.74,WNW,290,1.0,4.0,91,0.00,,,0.24,373,Wunderground v.1.15,2013-02-21 16:24:00,
2013-02-21 10:29:00,51.1,48.3,29.74,NW,311,2.0,4.0,90,0.00,,,0.24,482,Wunderground v.1.15,2013-02-21 16:29:00,
2013-02-21 10:35:00,51.3,48.5,29.75,NW,311,2.0,3.0,90,0.00,,,0.24,255,Wunderground v.1.15,2013-02-21 16:35:00,
2013-02-21 10:40:00,51.5,48.4,29.75,NW,311,0.0,0.0,89,0.00,,,0.24,225,Wunderground v.1.15,2013-02-21 16:40:00,
2013-02-21 10:45:00,51.8,48.7,29.75,NW,311,0.0,3.0,89,0.00,,,0.24,318,Wunderground v.1.15,2013-02-21 16:45:00,
2013-02-21 10:51:00,52.1,48.7,29.74,NW,311,1.0,3.0,88,0.00,,,0.24,448,Wunderground v.1.15,2013-02-21 16:51:00,
2013-02-21 10:56:00,52.9,48.8,29.75,NW,311,2.0,4.0,86,0.00,,,0.24,675,Wunderground v.1.15,2013-02-21 16:56:00,
2013-02-21 11:01:00,53.4,49.0,29.75,WNW,287,2.0,7.0,85,0.00,,,0.24,325,Wunderground v.1.15,2013-02-21 17:01:00,
2013-02-21 11:07:00,53.3,48.6,29.75,WSW,252,2.0,7.0,84,0.00,,,0.24,327,Wunderground v.1.15,2013-02-21 17:07:00,
2013-02-21 11:12:00,54.0,49.3,29.76,WSW,257,1.0,3.0,84,0.00,,,0.24,367,Wunderground v.1.15,2013-02-21 17:12:00,
2013-02-21 11:17:00,54.1,48.7,29.76,WNW,289,2.0,4.0,82,0.00,,,0.24,306,Wunderground v.1.15,2013-02-21 17:17:00,
2013-02-21 11:22:00,53.9,48.5,29.77,NNW,329,3.0,5.0,82,0.00,,,0.24,346,Wunderground v.1.15,2013-02-21 17:22:00,
2013-02-21 11:28:00,53.7,48.3,29.76,WNW,297,3.0,7.0,82,0.00,,,0.24,355,Wunderground v.1.15,2013-02-21 17:28:00,
2013-02-21 11:33:00,54.0,48.6,29.77,West,270,3.0,4.0,82,0.00,,,0.24,315,Wunderground v.1.15,2013-02-21 17:33:00,
2013-02-21 11:38:00,54.8,49.1,29.77,NW,312,2.0,5.0,81,0.00,,,0.24,483,Wunderground v.1.15,2013-02-21 17:38:00,
2013-02-21 11:44:00,55.7,49.6,29.76,WSW,251,3.0,5.0,80,0.00,,,0.24,483,Wunderground v.1.15,2013-02-21 17:44:00,
2013-02-21 11:49:00,56.6,49.8,29.76,WNW,295,3.0,5.0,78,0.00,,,0.24,476,Wunderground v.1.15,2013-02-21 17:49:00,
2013-02-21 11:55:00,56.5,49.0,29.75,WSW,253,3.0,5.0,76,0.00,,,0.24,320,Wunderground v.1.15,2013-02-21 17:55:00,
2013-02-21 12:00:00,56.7,49.6,29.75,WSW,252,2.0,2.0,77,0.00,,,0.24,367,Wunderground v.1.15,2013-02-21 18:00:00,
2013-02-21 12:06:00,57.1,49.2,29.75,NW,304,2.0,4.0,75,0.00,,,0.24,350,Wunderground v.1.15,2013-02-21 18:06:00,
2013-02-21 12:12:00,57.3,49.1,29.75,WSW,238,3.0,3.0,74,0.00,,,0.24,397,Wunderground v.1.15,2013-02-21 18:12:00,
2013-02-21 12:17:00,57.3,48.7,29.75,West,265,2.0,4.0,73,0.00,,,0.24,417,Wunderground v.1.15,2013-02-21 18:17:00,
2013-02-21 12:22:00,57.6,48.6,29.75,WNW,288,3.0,7.0,72,0.00,,,0.24,322,Wunderground v.1.15,2013-02-21 18:22:00,
2013-02-21 12:27:00,57.9,48.2,29.74,West,269,5.0,11.0,70,0.00,,,0.24,902,Wunderground v.1.15,2013-02-21 18:27:00,
2013-02-21 12:33:00,58.6,47.7,29.74,WNW,300,7.0,11.0,67,0.00,,,0.24,925,Wunderground v.1.15,2013-02-21 18:33:00,
2013-02-21 12:38:00,59.1,48.5,29.74,West,269,7.0,11.0,68,0.00,,,0.24,886,Wunderground v.1.15,2013-02-21 18:38:00,
2013-02-21 12:44:00,59.7,47.9,29.74,West,278,6.0,9.0,65,0.00,,,0.24,800,Wunderground v.1.15,2013-02-21 18:44:00,
2013-02-21 12:50:00,59.9,46.8,29.73,WNW,286,7.0,15.0,62,0.00,,,0.24,722,Wunderground v.1.15,2013-02-21 18:50:00,
2013-02-21 12:55:00,60.1,47.0,29.73,West,280,8.0,15.0,62,0.00,,,0.24,809,Wunderground v.1.15,2013-02-21 18:55:00,
2013-02-21 13:00:00,60.8,47.3,29.73,SW,219,8.0,8.0,61,0.00,,,0.24,714,Wunderground v.1.15,2013-02-21 19:00:00,
2013-02-21 13:06:00,61.1,47.1,29.73,West,277,8.0,12.0,60,0.00,,,0.24,719,Wunderground v.1.15,2013-02-21 19:06:00,
2013-02-21 13:11:00,61.3,45.9,29.72,WSW,254,7.0,7.0,57,0.00,,,0.24,722,Wunderground v.1.15,2013-02-21 19:11:00,
2013-02-21 13:17:00,61.7,45.4,29.72,WSW,240,7.0,9.0,55,0.00,,,0.24,719,Wunderground v.1.15,2013-02-21 19:17:00,
2013-02-21 13:22:00,62.1,45.2,29.72,South,188,6.0,7.0,54,0.00,,,0.24,714,Wunderground v.1.15,2013-02-21 19:22:00,
2013-02-21 13:27:00,62.6,44.2,29.72,SW,223,5.0,7.0,51,0.00,,,0.24,710,Wunderground v.1.15,2013-02-21 19:27:00,
2013-02-21 13:32:00,63.4,44.4,29.71,SSW,211,6.0,6.0,50,0.00,,,0.24,705,Wunderground v.1.15,2013-02-21 19:32:00,
2013-02-21 13:38:00,63.6,44.6,29.71,WNW,289,5.0,10.0,50,0.00,,,0.24,698,Wunderground v.1.15,2013-02-21 19:38:00,
2013-02-21 13:44:00,63.2,41.5,29.71,WSW,239,9.0,14.0,45,0.00,,,0.24,691,Wunderground v.1.15,2013-02-21 19:44:00,
2013-02-21 13:49:00,64.4,40.8,29.70,West,269,9.0,14.0,42,0.00,,,0.24,684,Wunderground v.1.15,2013-02-21 19:49:00,
2013-02-21 13:54:00,64.3,40.7,29.70,SW,225,8.0,10.0,42,0.00,,,0.24,675,Wunderground v.1.15,2013-02-21 19:54:00,
2013-02-21 14:00:00,64.9,39.3,29.70,NW,306,8.0,14.0,39,0.00,,,0.24,666,Wunderground v.1.15,2013-02-21 20:00:00,
2013-02-21 14:06:00,64.8,37.9,29.70,SSW,213,9.0,14.0,37,0.00,,,0.24,657,Wunderground v.1.15,2013-02-21 20:06:00,
2013-02-21 14:11:00,65.3,39.0,29.70,WSW,246,8.0,17.0,38,0.00,,,0.24,647,Wunderground v.1.15,2013-02-21 20:11:00,
2013-02-21 14:16:00,64.8,38.6,29.70,WNW,298,8.0,17.0,38,0.00,,,0.24,638,Wunderground v.1.15,2013-02-21 20:16:00,
2013-02-21 14:22:00,65.3,39.7,29.69,West,265,7.0,9.0,39,0.00,,,0.24,624,Wunderground v.1.15,2013-02-21 20:22:00,
2013-02-21 14:27:00,65.4,40.4,29.69,West,259,5.0,9.0,40,0.00,,,0.24,613,Wunderground v.1.15,2013-02-21 20:27:00,
2013-02-21 14:32:00,65.9,40.2,29.69,West,271,6.0,11.0,39,0.00,,,0.24,603,Wunderground v.1.15,2013-02-21 20:32:00,
2013-02-21 14:38:00,65.9,41.5,29.69,NW,310,8.0,11.0,41,0.00,,,0.24,589,Wunderground v.1.15,2013-02-21 20:38:00,
2013-02-21 14:43:00,66.1,40.4,29.70,WNW,302,8.0,10.0,39,0.00,,,0.24,578,Wunderground v.1.15,2013-02-21 20:43:00,
2013-02-21 14:49:00,66.1,41.1,29.69,West,260,8.0,10.0,40,0.00,,,0.24,563,Wunderground v.1.15,2013-02-21 20:49:00,
2013-02-21 14:55:00,66.5,42.1,29.70,West,265,5.0,7.0,41,0.00,,,0.24,548,Wunderground v.1.15,2013-02-21 20:55:00,
2013-02-21 15:00:00,66.4,40.7,29.69,WSW,240,3.0,3.0,39,0.00,,,0.24,534,Wunderground v.1.15,2013-02-21 21:00:00,
2013-02-21 15:06:00,66.9,41.1,29.69,WNW,293,3.0,9.0,39,0.00,,,0.24,524,Wunderground v.1.15,2013-02-21 21:06:00,
2013-02-21 15:11:00,67.0,40.5,29.69,WNW,292,5.0,8.0,38,0.00,,,0.24,508,Wunderground v.1.15,2013-02-21 21:11:00,
2013-02-21 15:16:00,67.2,40.7,29.69,West,263,5.0,8.0,38,0.00,,,0.24,494,Wunderground v.1.15,2013-02-21 21:16:00,
2013-02-21 15:22:00,68.0,39.3,29.69,West,267,5.0,12.0,35,0.00,,,0.24,475,Wunderground v.1.15,2013-02-21 21:22:00,
2013-02-21 15:27:00,68.0,38.6,29.69,WNW,296,8.0,12.0,34,0.00,,,0.24,462,Wunderground v.1.15,2013-02-21 21:27:00,
2013-02-21 15:33:00,68.2,37.2,29.69,SW,223,7.0,10.0,32,0.00,,,0.24,448,Wunderground v.1.15,2013-02-21 21:33:00,
2013-02-21 15:39:00,68.3,32.1,29.70,WSW,239,8.0,12.0,26,0.00,,,0.24,434,Wunderground v.1.15,2013-02-21 21:39:00,
2013-02-21 15:44:00,68.6,31.3,29.70,WNW,284,9.0,12.0,25,0.00,,,0.24,417,Wunderground v.1.15,2013-02-21 21:44:00,
2013-02-21 15:50:00,68.7,31.4,29.70,WSW,252,8.0,8.0,25,0.00,,,0.24,397,Wunderground v.1.15,2013-02-21 21:50:00,
2013-02-21 15:55:00,68.8,29.5,29.70,SW,234,9.0,11.0,23,0.00,,,0.24,380,Wunderground v.1.15,2013-02-21 21:55:00,
2013-02-21 16:00:00,68.8,28.4,29.70,WSW,242,10.0,10.0,22,0.00,,,0.24,364,Wunderground v.1.15,2013-02-21 22:00:00,
2013-02-21 16:06:00,68.7,29.4,29.70,West,276,9.0,11.0,23,0.00,,,0.24,345,Wunderground v.1.15,2013-02-21 22:06:00,
2013-02-21 16:11:00,68.9,29.5,29.71,WNW,294,7.0,10.0,23,0.00,,,0.24,327,Wunderground v.1.15,2013-02-21 22:11:00,
2013-02-21 16:17:00,68.9,28.5,29.71,WSW,248,9.0,19.0,22,0.00,,,0.24,311,Wunderground v.1.15,2013-02-21 22:17:00,
2013-02-21 16:22:00,68.8,27.2,29.71,West,275,9.0,13.0,21,0.00,,,0.24,292,Wunderground v.1.15,2013-02-21 22:22:00,
2013-02-21 16:27:00,68.5,27.0,29.71,WNW,290,10.0,13.0,21,0.00,,,0.24,269,Wunderground v.1.15,2013-02-21 22:27:00,
2013-02-21 16:33:00,68.4,28.0,29.71,West,268,10.0,13.0,22,0.00,,,0.24,246,Wunderground v.1.15,2013-02-21 22:33:00,
2013-02-21 16:38:00,68.4,28.0,29.71,WSW,258,9.0,13.0,22,0.00,,,0.24,223,Wunderground v.1.15,2013-02-21 22:38:00,
2013-02-21 16:44:00,68.2,27.9,29.72,West,267,8.0,16.0,22,0.00,,,0.24,195,Wunderground v.1.15,2013-02-21 22:44:00,
2013-02-21 16:49:00,68.1,27.8,29.72,SW,230,8.0,16.0,22,0.00,,,0.24,172,Wunderground v.1.15,2013-02-21 22:49:00,
2013-02-21 16:54:00,68.1,27.8,29.72,West,267,9.0,16.0,22,0.00,,,0.24,151,Wunderground v.1.15,2013-02-21 22:54:00,
2013-02-21 16:59:00,68.0,27.7,29.72,WSW,246,9.0,20.0,22,0.00,,,0.24,77,Wunderground v.1.15,2013-02-21 22:59:00,
2013-02-21 17:05:00,67.9,28.7,29.72,West,276,8.0,13.0,23,0.00,,,0.24,109,Wunderground v.1.15,2013-02-21 23:05:00,
2013-02-21 17:10:00,67.9,29.7,29.73,NNW,336,8.0,8.0,24,0.00,,,0.24,90,Wunderground v.1.15,2013-02-21 23:10:00,
2013-02-21 17:15:00,67.7,29.6,29.73,WNW,292,8.0,17.0,24,0.00,,,0.24,72,Wunderground v.1.15,2013-02-21 23:15:00,
2013-02-21 17:20:00,67.6,29.5,29.73,WNW,291,8.0,8.0,24,0.00,,,0.24,56,Wunderground v.1.15,2013-02-21 23:20:00,
2013-02-21 17:26:00,67.4,29.3,29.73,West,265,7.0,9.0,24,0.00,,,0.24,39,Wunderground v.1.15,2013-02-21 23:26:00,
2013-02-21 17:31:00,67.3,30.2,29.73,WNW,290,7.0,7.0,25,0.00,,,0.24,26,Wunderground v.1.15,2013-02-21 23:31:00,
2013-02-21 17:37:00,67.3,30.2,29.73,WNW,282,6.0,11.0,25,0.00,,,0.24,25,Wunderground v.1.15,2013-02-21 23:37:00,
2013-02-21 17:43:00,67.1,31.0,29.74,WNW,292,6.0,6.0,26,0.00,,,0.24,21,Wunderground v.1.15,2013-02-21 23:43:00,
2013-02-21 17:48:00,66.8,30.8,29.74,WNW,295,7.0,11.0,26,0.00,,,0.24,19,Wunderground v.1.15,2013-02-21 23:48:00,
2013-02-21 17:54:00,66.5,31.5,29.75,WSW,257,6.0,7.0,27,0.00,,,0.24,18,Wunderground v.1.15,2013-02-21 23:54:00,
2013-02-21 17:59:00,66.1,31.1,29.76,WSW,256,6.0,20.0,27,0.00,,,0.24,16,Wunderground v.1.15,2013-02-21 23:59:00,
2013-02-21 18:04:00,65.7,32.5,29.76,WSW,254,6.0,10.0,29,0.00,,,0.24,12,Wunderground v.1.15,2013-02-22 00:04:00,
2013-02-21 18:10:00,65.2,32.1,29.76,West,261,6.0,7.0,29,0.00,,,0.24,9,Wunderground v.1.15,2013-02-22 00:10:00,
2013-02-21 18:15:00,64.8,32.6,29.77,WSW,255,6.0,7.0,30,0.00,,,0.24,7,Wunderground v.1.15,2013-02-22 00:15:00,
2013-02-21 18:21:00,64.4,33.1,29.77,West,267,6.0,6.0,31,0.00,,,0.24,0,Wunderground v.1.15,2013-02-22 00:21:00,
2013-02-21 18:26:00,64.1,33.6,29.78,WNW,289,6.0,6.0,32,0.00,,,0.24,0,Wunderground v.1.15,2013-02-22 00:26:00,
2013-02-21 18:31:00,63.8,34.1,29.78,West,267,4.0,5.0,33,0.00,,,0.24,0,Wunderground v.1.15,2013-02-22 00:31:00,
2013-02-21 18:37:00,63.4,34.5,29.79,West,281,3.0,5.0,34,0.00,,,0.24,0,Wunderground v.1.15,2013-02-22 00:37:00,
2013-02-21 18:42:00,63.0,34.2,29.79,WNW,285,4.0,5.0,34,0.00,,,0.24,0,Wunderground v.1.15,2013-02-22 00:42:00,
2013-02-21 18:47:00,62.7,34.6,29.79,West,280,3.0,5.0,35,0.00,,,0.24,0,Wunderground v.1.15,2013-02-22 00:47:00,
2013-02-21 18:53:00,62.4,34.4,29.80,WNW,284,2.0,2.0,35,0.00,,,0.24,0,Wunderground v.1.15,2013-02-22 00:53:00,
2013-02-21 18:58:00,62.1,34.8,29.80,WNW,285,2.0,11.0,36,0.00,,,0.24,0,Wunderground v.1.15,2013-02-22 00:58:00,
2013-02-21 19:03:00,61.7,35.1,29.80,WNW,285,2.0,3.0,37,0.00,,,0.24,0,Wunderground v.1.15,2013-02-22 01:03:00,
2013-02-21 19:09:00,61.4,34.9,29.80,WNW,285,2.0,4.0,37,0.00,,,0.24,0,Wunderground v.1.15,2013-02-22 01:09:00,
2013-02-21 19:14:00,61.1,35.3,29.80,WNW,285,2.0,4.0,38,0.00,,,0.24,0,Wunderground v.1.15,2013-02-22 01:14:00,
2013-02-21 19:19:00,60.9,35.1,29.80,WNW,289,3.0,5.0,38,0.00,,,0.24,0,Wunderground v.1.15,2013-02-22 01:19:00,
2013-02-21 19:25:00,60.7,34.9,29.81,WNW,284,3.0,5.0,38,0.00,,,0.24,0,Wunderground v.1.15,2013-02-22 01:25:00,
2013-02-21 19:30:00,60.5,34.7,29.81,WNW,284,2.0,2.0,38,0.00,,,0.24,0,Wunderground v.1.15,2013-02-22 01:30:00,
2013-02-21 19:35:00,60.4,35.3,29.81,WNW,284,2.0,2.0,39,0.00,,,0.24,0,Wunderground v.1.15,2013-02-22 01:35:00,
2013-02-21 19:41:00,60.1,35.0,29.81,WNW,284,1.0,1.0,39,0.00,,,0.24,0,Wunderground v.1.15,2013-02-22 01:41:00,
2013-02-21 19:46:00,59.7,34.7,29.82,WNW,284,1.0,2.0,39,0.00,,,0.24,0,Wunderground v.1.15,2013-02-22 01:46:00,
2013-02-21 19:51:00,59.3,35.6,29.82,WNW,284,1.0,1.0,41,0.00,,,0.24,0,Wunderground v.1.15,2013-02-22 01:51:00,
2013-02-21 19:57:00,58.8,35.1,29.82,WNW,284,0.0,5.0,41,0.00,,,0.24,0,Wunderground v.1.15,2013-02-22 01:57:00,
2013-02-21 20:02:00,58.6,35.0,29.82,WNW,284,1.0,1.0,41,0.00,,,0.24,0,Wunderground v.1.15,2013-02-22 02:02:00,
2013-02-21 20:07:00,58.6,35.0,29.82,WNW,284,1.0,5.0,41,0.00,,,0.24,0,Wunderground v.1.15,2013-02-22 02:07:00,
2013-02-21 20:12:00,58.3,35.9,29.83,WNW,284,0.0,0.0,43,0.00,,,0.24,0,Wunderground v.1.15,2013-02-22 02:12:00,
2013-02-21 20:18:00,57.9,36.1,29.83,WNW,284,0.0,3.0,44,0.00,,,0.24,0,Wunderground v.1.15,2013-02-22 02:18:00,
2013-02-21 20:23:00,57.6,35.8,29.83,WNW,284,0.0,0.0,44,0.00,,,0.24,0,Wunderground v.1.15,2013-02-22 02:23:00,
2013-02-21 20:29:00,57.3,36.1,29.83,WNW,284,0.0,0.0,45,0.00,,,0.24,0,Wunderground v.1.15,2013-02-22 02:29:00,
2013-02-21 20:35:00,57.2,36.0,29.83,WNW,284,0.0,0.0,45,0.00,,,0.24,0,Wunderground v.1.15,2013-02-22 02:35:00,
2013-02-21 20:40:00,56.9,35.8,29.83,WSW,255,1.0,8.0,45,0.00,,,0.24,0,Wunderground v.1.15,2013-02-22 02:40:00,
2013-02-21 20:46:00,57.2,35.5,29.84,West,272,4.0,9.0,44,0.00,,,0.24,0,Wunderground v.1.15,2013-02-22 02:46:00,
2013-02-21 20:51:00,58.0,37.9,29.86,WNW,302,7.0,12.0,47,0.00,,,0.24,0,Wunderground v.1.15,2013-02-22 02:51:00,
2013-02-21 20:57:00,57.9,39.9,29.87,West,265,8.0,12.0,51,0.00,,,0.24,0,Wunderground v.1.15,2013-02-22 02:57:00,
2013-02-21 21:02:00,57.2,40.2,29.88,NW,321,7.0,9.0,53,0.00,,,0.24,0,Wunderground v.1.15,2013-02-22 03:02:00,
2013-02-21 21:07:00,56.5,40.5,29.88,NNW,336,6.0,14.0,55,0.00,,,0.24,0,Wunderground v.1.15,2013-02-22 03:07:00,
2013-02-21 21:13:00,55.3,40.3,29.89,NNW,340,6.0,10.0,57,0.00,,,0.24,0,Wunderground v.1.15,2013-02-22 03:13:00,
2013-02-21 21:18:00,54.4,40.4,29.89,NNW,340,7.0,11.0,59,0.00,,,0.24,0,Wunderground v.1.15,2013-02-22 03:18:00,
2013-02-21 21:23:00,53.6,40.5,29.90,NW,318,7.0,10.0,61,0.00,,,0.24,0,Wunderground v.1.15,2013-02-22 03:23:00,
2013-02-21 21:28:00,53.2,40.5,29.90,NNW,328,5.0,10.0,62,0.00,,,0.24,0,Wunderground v.1.15,2013-02-22 03:28:00,
2013-02-21 21:34:00,52.6,40.4,29.91,NW,309,5.0,8.0,63,0.00,,,0.24,0,Wunderground v.1.15,2013-02-22 03:34:00,
2013-02-21 21:39:00,52.1,39.9,29.90,NNW,327,5.0,8.0,63,0.00,,,0.24,0,Wunderground v.1.15,2013-02-22 03:39:00,
2013-02-21 21:45:00,51.7,39.9,29.91,NW,323,5.0,7.0,64,0.00,,,0.24,0,Wunderground v.1.15,2013-02-22 03:45:00,
2013-02-21 21:51:00,51.3,39.9,29.91,NW,321,4.0,9.0,65,0.00,,,0.24,0,Wunderground v.1.15,2013-02-22 03:51:00,
2013-02-21 21:56:00,51.0,39.6,29.92,NNW,327,5.0,17.0,65,0.00,,,0.24,0,Wunderground v.1.15,2013-02-22 03:56:00,
2013-02-21 22:02:00,50.7,39.4,29.92,NNW,345,4.0,5.0,65,0.00,,,0.24,0,Wunderground v.1.15,2013-02-22 04:02:00,
2013-02-21 22:07:00,50.4,39.1,29.92,North,349,5.0,7.0,65,0.00,,,0.24,0,Wunderground v.1.15,2013-02-22 04:07:00,
2013-02-21 22:12:00,50.1,39.2,29.92,NNW,343,5.0,8.0,66,0.00,,,0.24,0,Wunderground v.1.15,2013-02-22 04:12:00,
2013-02-21 22:18:00,49.8,38.9,29.92,NNW,333,6.0,10.0,66,0.00,,,0.24,0,Wunderground v.1.15,2013-02-22 04:18:00,
2013-02-21 22:23:00,49.6,39.1,29.92,North,360,6.0,13.0,67,0.00,,,0.24,0,Wunderground v.1.15,2013-02-22 04:23:00,
2013-02-21 22:28:00,49.4,38.9,29.93,NNW,343,6.0,13.0,67,0.00,,,0.24,0,Wunderground v.1.15,2013-02-22 04:28:00,
2013-02-21 22:34:00,49.2,38.7,29.95,WSW,250,5.0,9.0,67,0.00,,,0.24,0,Wunderground v.1.15,2013-02-22 04:34:00,
2013-02-21 22:40:00,49.0,38.5,29.95,West,280,3.0,3.0,67,0.00,,,0.24,0,Wunderground v.1.15,2013-02-22 04:40:00,
2013-02-21 22:45:00,48.8,38.7,29.95,NNW,332,3.0,5.0,68,0.00,,,0.24,0,Wunderground v.1.15,2013-02-22 04:45:00,
2013-02-21 22:51:00,48.5,38.4,29.95,NNW,344,4.0,9.0,68,0.00,,,0.24,0,Wunderground v.1.15,2013-02-22 04:51:00,
2013-02-21 22:56:00,48.3,38.2,29.95,NNW,336,5.0,12.0,68,0.00,,,0.24,0,Wunderground v.1.15,2013-02-22 04:56:00,
2013-02-21 23:00:00,48.1,38.4,29.95,NNE,13,4.0,4.0,69,0.00,,,0.24,0,Wunderground v.1.15,2013-02-22 05:00:00,
2013-02-21 23:01:00,48.1,38.4,29.95,North,11,4.0,4.0,69,0.00,,,0.24,0,Wunderground v.1.15,2013-02-22 05:01:00,
2013-02-21 23:02:00,48.1,38.4,29.95,North,360,3.0,5.0,69,0.00,,,0.24,0,Wunderground v.1.15,2013-02-22 05:02:00,
2013-02-21 23:08:00,47.8,38.1,29.95,NNW,339,3.0,8.0,69,0.00,,,0.24,0,Wunderground v.1.15,2013-02-22 05:08:00,
2013-02-21 23:13:00,47.7,38.4,29.95,North,355,3.0,3.0,70,0.00,,,0.24,0,Wunderground v.1.15,2013-02-22 05:13:00,
2013-02-21 23:18:00,47.5,38.2,29.95,North,355,2.0,7.0,70,0.00,,,0.24,0,Wunderground v.1.15,2013-02-22 05:18:00,
2013-02-21 23:24:00,47.3,38.0,29.95,NNE,13,3.0,6.0,70,0.00,,,0.24,0,Wunderground v.1.15,2013-02-22 05:24:00,
2013-02-21 23:29:00,47.2,38.3,29.95,North,355,3.0,6.0,71,0.00,,,0.24,0,Wunderground v.1.15,2013-02-22 05:29:00,
2013-02-21 23:34:00,47.0,38.1,29.94,NNW,332,3.0,7.0,71,0.00,,,0.24,0,Wunderground v.1.15,2013-02-22 05:34:00,
2013-02-21 23:40:00,46.8,37.9,29.95,NW,304,3.0,6.0,71,0.00,,,0.24,0,Wunderground v.1.15,2013-02-22 05:40:00,
2013-02-21 23:45:00,46.6,38.1,29.95,North,5,3.0,6.0,72,0.00,,,0.24,0,Wunderground v.1.15,2013-02-22 05:45:00,
2013-02-21 23:50:00,46.5,38.0,29.95,North,360,3.0,3.0,72,0.00,,,0.24,0,Wunderground v.1.15,2013-02-22 05:50:00,
2013-02-21 23:56:00,46.3,37.8,29.95,NNW,346,3.0,8.0,72,0.00,,,0.24,0,Wunderground v.1.15,2013-02-22 05:56:00,